| time (UTC) | temp C | wind direction | speed KPH | gust KPH | rain 1hr cm | rain 24hr cm | rain mn cm | humidity % | barometer mb |
| 20260510190606 | 22 | 250 | 1.6 | 9.7 | 0.00 | 0.00 | 0.00 | 32 | 1020.3 |
| 20260510190103 | 21 | 298 | 1.6 | 3.2 | 0.00 | 0.00 | 0.00 | 35 | 1020.2 |
| 20260510185559 | 21 | 87 | 0.0 | 3.2 | 0.00 | 0.00 | 0.00 | 34 | 1020.3 |
| 20260510185057 | 21 | 253 | 3.2 | 3.2 | 0.00 | 0.00 | 0.00 | 33 | 1020.1 |
| 20260510184554 | 21 | 298 | 6.4 | 6.4 | 0.00 | 0.00 | 0.00 | 36 | 1020.2 |
| 20260510184049 | 21 | 277 | 6.4 | 9.7 | 0.00 | 0.00 | 0.00 | 32 | 1020.2 |
| 20260510183545 | 21 | 293 | 1.6 | 4.8 | 0.00 | 0.00 | 0.00 | 34 | 1020.5 |
| 20260510183041 | 21 | 48 | 4.8 | 4.8 | 0.00 | 0.00 | 0.00 | 33 | 1020.3 |
| 20260510182538 | 21 | 123 | 3.2 | 9.7 | 0.00 | 0.00 | 0.00 | 32 | 1020.2 |
| 20260510182032 | 22 | 232 | 1.6 | 4.8 | 0.00 | 0.00 | 0.00 | 34 | 1020.0 |
| 20260510181531 | 21 | 342 | 0.0 | 3.2 | 0.00 | 0.00 | 0.00 | 36 | 1020.0 |
| 20260510181026 | 21 | 259 | 4.8 | 6.4 | 0.00 | 0.00 | 0.00 | 39 | 1019.9 |
| 20260510180524 | 21 | 27 | 1.6 | 4.8 | 0.00 | 0.00 | 0.00 | 32 | 1019.9 |
| 20260510180022 | 21 | 23 | 1.6 | 9.7 | 0.00 | 0.00 | 0.00 | 36 | 1019.9 |
| 20260510175522 | 21 | 26 | 1.6 | 3.2 | 0.00 | 0.00 | 0.00 | 34 | 1019.6 |
| 20260510175019 | 21 | 354 | 1.6 | 4.8 | 0.00 | 0.00 | 0.00 | 32 | 1019.8 |
| 20260510174517 | 21 | 54 | 1.6 | 3.2 | 0.00 | 0.00 | 0.00 | 33 | 1019.9 |
| 20260510174014 | 21 | 260 | 3.2 | 4.8 | 0.00 | 0.00 | 0.00 | 33 | 1020.0 |
| 20260510173508 | 20 | 85 | 1.6 | 4.8 | 0.00 | 0.00 | 0.00 | 33 | 1020.0 |
| 20260510173006 | 20 | 269 | 3.2 | 4.8 | 0.00 | 0.00 | 0.00 | 34 | 1020.0 |
| 20260510172501 | 21 | 237 | 3.2 | 4.8 | 0.00 | 0.00 | 0.00 | 33 | 1020.0 |
| 20260510171958 | 21 | 42 | 6.4 | 9.7 | 0.00 | 0.00 | 0.00 | 31 | 1019.8 |
| 20260510171454 | 21 | 315 | 4.8 | 11.3 | 0.00 | 0.00 | 0.00 | 33 | 1020.0 |
| 20260510170951 | 20 | 43 | 1.6 | 3.2 | 0.00 | 0.00 | 0.00 | 33 | 1020.0 |
| 20260510170448 | 21 | 89 | 3.2 | 9.7 | 0.00 | 0.00 | 0.00 | 34 | 1020.1 |
| 20260510165943 | 20 | 38 | 3.2 | 4.8 | 0.00 | 0.00 | 0.00 | 34 | 1019.8 |
| 20260510165440 | 20 | 58 | 1.6 | 3.2 | 0.00 | 0.00 | 0.00 | 35 | 1019.8 |
| 20260510164937 | 20 | 21 | 3.2 | 4.8 | 0.00 | 0.00 | 0.00 | 33 | 1019.9 |
| 20260510164434 | 20 | 169 | 3.2 | 4.8 | 0.00 | 0.00 | 0.00 | 35 | 1020.0 |
| 20260510163934 | 20 | 49 | 1.6 | 4.8 | 0.00 | 0.00 | 0.00 | 35 | 1019.8 |
| 20260510163430 | 20 | 24 | 0.0 | 4.8 | 0.00 | 0.00 | 0.00 | 35 | 1020.1 |
| 20260510162925 | 20 | 326 | 1.6 | 4.8 | 0.00 | 0.00 | 0.00 | 36 | 1019.8 |
| 20260510162423 | 20 | 250 | 4.8 | 6.4 | 0.00 | 0.00 | 0.00 | 35 | 1019.9 |
| 20260510161919 | 20 | 243 | 3.2 | 9.7 | 0.00 | 0.00 | 0.00 | 33 | 1019.8 |
| 20260510161414 | 20 | 126 | 0.0 | 4.8 | 0.00 | 0.00 | 0.00 | 38 | 1019.8 |
| 20260510160912 | 19 | 314 | 0.0 | 4.8 | 0.00 | 0.00 | 0.00 | 42 | 1019.5 |
| 20260510160409 | 19 | 140 | 4.8 | 9.7 | 0.00 | 0.00 | 0.00 | 35 | 1019.9 |
| 20260510155907 | 19 | 219 | 1.6 | 4.8 | 0.00 | 0.00 | 0.00 | 36 | 1020.0 |
| 20260510155405 | 19 | 246 | 4.8 | 6.4 | 0.00 | 0.00 | 0.00 | 37 | 1020.1 |
| 20260510154901 | 19 | 63 | 1.6 | 6.4 | 0.00 | 0.00 | 0.00 | 37 | 1020.1 |
| 20260510154357 | 18 | 84 | 1.6 | 1.6 | 0.00 | 0.00 | 0.00 | 40 | 1020.0 |
| 20260510153851 | 18 | 23 | 1.6 | 6.4 | 0.00 | 0.00 | 0.00 | 42 | 1020.0 |
| 20260510153347 | 18 | 267 | 1.6 | 4.8 | 0.00 | 0.00 | 0.00 | 38 | 1020.0 |
| 20260510152844 | 18 | 291 | 0.0 | 3.2 | 0.00 | 0.00 | 0.00 | 44 | 1020.1 |
| 20260510152342 | 18 | 275 | 3.2 | 3.2 | 0.00 | 0.00 | 0.00 | 44 | 1020.0 |
| 20260510151837 | 18 | 266 | 3.2 | 9.7 | 0.00 | 0.00 | 0.00 | 42 | 1020.2 |
| 20260510151335 | 18 | 53 | 0.0 | 9.7 | 0.00 | 0.00 | 0.00 | 38 | 1020.1 |
| 20260510150831 | 18 | 39 | 3.2 | 4.8 | 0.00 | 0.00 | 0.00 | 41 | 1020.2 |
| 20260510150327 | 18 | 81 | 3.2 | 4.8 | 0.00 | 0.00 | 0.00 | 39 | 1020.1 |
| 20260510145824 | 17 | 49 | 0.0 | 3.2 | 0.00 | 0.00 | 0.00 | 42 | 1020.0 |
| 20260510145320 | 17 | 8 | 1.6 | 6.4 | 0.00 | 0.00 | 0.00 | 44 | 1020.1 |
| 20260510144817 | 17 | 91 | 3.2 | 11.3 | 0.00 | 0.00 | 0.00 | 40 | 1020.2 |
| 20260510144313 | 17 | 313 | 1.6 | 6.4 | 0.00 | 0.00 | 0.00 | 42 | 1019.9 |
| 20260510143813 | 17 | 88 | 3.2 | 6.4 | 0.00 | 0.00 | 0.00 | 42 | 1019.9 |
| 20260510143309 | 17 | 223 | 0.0 | 3.2 | 0.00 | 0.00 | 0.00 | 46 | 1019.8 |
| 20260510142806 | 17 | 53 | 3.2 | 4.8 | 0.00 | 0.00 | 0.00 | 43 | 1019.7 |
| 20260510142306 | 17 | 85 | 3.2 | 4.8 | 0.00 | 0.00 | 0.00 | 44 | 1019.7 |
| 20260510141800 | 17 | 264 | 1.6 | 6.4 | 0.00 | 0.00 | 0.00 | 45 | 1019.4 |
| 20260510141258 | 17 | 34 | 1.6 | 3.2 | 0.00 | 0.00 | 0.00 | 46 | 1019.2 |
| 20260510140755 | 17 | 251 | 1.6 | 3.2 | 0.00 | 0.00 | 0.00 | 48 | 1019.3 |
| 20260510140250 | 17 | 50 | 0.0 | 6.4 | 0.00 | 0.00 | 0.00 | 50 | 1019.0 |
| 20260510135750 | 16 | 50 | 3.2 | 4.8 | 0.00 | 0.00 | 0.00 | 50 | 1018.9 |
| 20260510135245 | 16 | 108 | 0.0 | 1.6 | 0.00 | 0.00 | 0.00 | 50 | 1019.0 |
| 20260510134743 | 16 | 322 | 0.0 | 1.6 | 0.00 | 0.00 | 0.00 | 54 | 1018.8 |
| 20260510134240 | 16 | 112 | 3.2 | 4.8 | 0.00 | 0.00 | 0.00 | 52 | 1018.8 |
| 20260510133736 | 16 | 208 | 1.6 | 4.8 | 0.00 | 0.00 | 0.00 | 51 | 1018.7 |
| 20260510133232 | 16 | 48 | 3.2 | 4.8 | 0.00 | 0.00 | 0.00 | 53 | 1018.7 |
| 20260510132728 | 16 | 347 | 1.6 | 1.6 | 0.00 | 0.00 | 0.00 | 57 | 1018.7 |
| 20260510132226 | 16 | 62 | 0.0 | 0.0 | 0.00 | 0.00 | 0.00 | 56 | 1018.4 |
| 20260510131722 | 15 | 88 | 0.0 | 3.2 | 0.00 | 0.00 | 0.00 | 57 | 1018.6 |
| 20260510131221 | 15 | 50 | 1.6 | 3.2 | 0.00 | 0.00 | 0.00 | 60 | 1018.4 |
| 20260510130716 | 15 | 79 | 0.0 | 9.7 | 0.00 | 0.00 | 0.00 | 63 | 1018.2 |
| 20260510130214 | 15 | 80 | 0.0 | 4.8 | 0.00 | 0.00 | 0.00 | 64 | 1018.4 |
| 20260510125710 | 15 | 56 | 0.0 | 3.2 | 0.00 | 0.00 | 0.00 | 66 | 1018.3 |
| 20260510125206 | 15 | 69 | 1.6 | 3.2 | 0.00 | 0.00 | 0.00 | 68 | 1018.2 |
| 20260510124703 | 15 | 71 | 3.2 | 4.8 | 0.00 | 0.00 | 0.00 | 70 | 1018.4 |
| 20260510124201 | 15 | 68 | 1.6 | 4.8 | 0.00 | 0.00 | 0.00 | 69 | 1018.4 |
| 20260510123655 | 15 | 45 | 1.6 | 1.6 | 0.00 | 0.00 | 0.00 | 70 | 1018.1 |
| 20260510123152 | 15 | 96 | 1.6 | 3.2 | 0.00 | 0.00 | 0.00 | 70 | 1018.3 |
| 20260510122648 | 15 | 280 | 0.0 | 3.2 | 0.00 | 0.00 | 0.00 | 71 | 1018.0 |
| 20260510122144 | 15 | 231 | 0.0 | 1.6 | 0.00 | 0.00 | 0.00 | 71 | 1017.8 |
| 20260510121641 | 15 | 65 | 1.6 | 3.2 | 0.00 | 0.00 | 0.00 | 72 | 1017.9 |
| 20260510121138 | 15 | 359 | 1.6 | 1.6 | 0.00 | 0.00 | 0.00 | 72 | 1017.8 |
| 20260510120636 | 15 | 116 | 0.0 | 3.2 | 0.00 | 0.00 | 0.00 | 72 | 1017.8 |
| 20260510120131 | 15 | 304 | 0.0 | 1.6 | 0.00 | 0.00 | 0.00 | 73 | 1017.8 |
| 20260510115628 | 15 | 355 | 0.0 | 1.6 | 0.00 | 0.00 | 0.00 | 73 | 1017.4 |
| 20260510115126 | 15 | 63 | 1.6 | 3.2 | 0.00 | 0.00 | 0.00 | 75 | 1017.5 |
| 20260510114621 | 15 | 50 | 0.0 | 1.6 | 0.00 | 0.00 | 0.00 | 77 | 1017.5 |
| 20260510114118 | 15 | 88 | 0.0 | 4.8 | 0.00 | 0.00 | 0.00 | 78 | 1017.4 |
| 20260510113613 | 15 | 240 | 0.0 | 3.2 | 0.00 | 0.00 | 0.00 | 81 | 1017.1 |
| 20260510113111 | 15 | 293 | 0.0 | 1.6 | 0.00 | 0.00 | 0.00 | 82 | 1017.3 |
| 20260510112607 | 15 | 301 | 0.0 | 4.8 | 0.00 | 0.00 | 0.00 | 83 | 1017.1 |
| 20260510112104 | 15 | 277 | 0.0 | 1.6 | 0.00 | 0.00 | 0.00 | 84 | 1017.4 |
| 20260510111600 | 15 | 240 | 0.0 | 3.2 | 0.00 | 0.00 | 0.00 | 83 | 1017.0 |
| 20260510111056 | 15 | 4 | 0.0 | 1.6 | 0.00 | 0.00 | 0.00 | 84 | 1016.9 |
| 20260510110552 | 15 | 13 | 0.0 | 0.0 | 0.00 | 0.00 | 0.00 | 83 | 1016.7 |
| 20260510110049 | 15 | 13 | 0.0 | 0.0 | 0.00 | 0.00 | 0.00 | 82 | 1016.7 |
| 20260510105544 | 15 | 13 | 0.0 | 0.0 | 0.00 | 0.00 | 0.00 | 81 | 1016.5 |
| 20260510105039 | 15 | 13 | 0.0 | 0.0 | 0.00 | 0.00 | 0.00 | 80 | 1016.4 |
| 20260510104536 | 15 | 13 | 0.0 | 0.0 | 0.00 | 0.00 | 0.00 | 79 | 1016.3 |
| 20260510104032 | 15 | 13 | 0.0 | 1.6 | 0.00 | 0.00 | 0.00 | 79 | 1016.2 |
| 20260510103530 | 15 | 14 | 0.0 | 0.0 | 0.00 | 0.00 | 0.00 | 77 | 1016.0 |
| 20260510103026 | 16 | 14 | 0.0 | 0.0 | 0.00 | 0.00 | 0.00 | 76 | 1016.0 |
| 20260510102522 | 16 | 14 | 0.0 | 0.0 | 0.00 | 0.00 | 0.00 | 75 | 1015.8 |
| 20260510102018 | 16 | 14 | 0.0 | 1.6 | 0.00 | 0.00 | 0.00 | 76 | 1016.1 |
| 20260510101515 | 16 | 255 | 0.0 | 1.6 | 0.00 | 0.00 | 0.00 | 75 | 1015.9 |
| 20260510101014 | 16 | 245 | 3.2 | 3.2 | 0.00 | 0.00 | 0.00 | 78 | 1015.8 |
| 20260510100510 | 16 | 45 | 0.0 | 1.6 | 0.00 | 0.00 | 0.00 | 81 | 1015.3 |
| 20260510100007 | 16 | 33 | 0.0 | 0.0 | 0.00 | 0.00 | 0.00 | 81 | 1015.3 |
| 20260510095502 | 16 | 326 | 0.0 | 0.0 | 0.00 | 0.00 | 0.00 | 81 | 1015.2 |
| 20260510095002 | 16 | 327 | 1.6 | 1.6 | 0.00 | 0.00 | 0.00 | 82 | 1015.2 |
| 20260510094457 | 15 | 207 | 0.0 | 0.0 | 0.00 | 0.00 | 0.00 | 83 | 1015.4 |
| 20260510093953 | 15 | 65 | 0.0 | 1.6 | 0.00 | 0.00 | 0.00 | 84 | 1015.2 |
| 20260510093448 | 15 | 60 | 0.0 | 0.0 | 0.00 | 0.00 | 0.00 | 85 | 1015.2 |
| 20260510092945 | 15 | 60 | 0.0 | 0.0 | 0.00 | 0.00 | 0.00 | 84 | 1015.2 |
| 20260510092443 | 15 | 61 | 0.0 | 3.2 | 0.00 | 0.00 | 0.00 | 84 | 1015.3 |
| 20260510091942 | 16 | 213 | 0.0 | 0.0 | 0.00 | 0.00 | 0.00 | 84 | 1015.3 |
| 20260510091440 | 16 | 24 | 0.0 | 3.2 | 0.00 | 0.00 | 0.00 | 84 | 1015.4 |
| 20260510090936 | 16 | 263 | 3.2 | 3.2 | 0.00 | 0.00 | 0.00 | 83 | 1015.2 |
| 20260510090433 | 16 | 314 | 1.6 | 4.8 | 0.00 | 0.00 | 0.00 | 82 | 1015.3 |
| 20260510085928 | 16 | 294 | 0.0 | 3.2 | 0.00 | 0.00 | 0.00 | 83 | 1015.0 |
| 20260510085424 | 16 | 275 | 1.6 | 1.6 | 0.00 | 0.00 | 0.00 | 83 | 1015.0 |
| 20260510084919 | 16 | 275 | 0.0 | 0.0 | 0.00 | 0.00 | 0.00 | 82 | 1014.6 |
| 20260510084417 | 16 | 275 | 0.0 | 0.0 | 0.00 | 0.00 | 0.00 | 82 | 1014.6 |
| 20260510083913 | 15 | 273 | 0.0 | 1.6 | 0.00 | 0.00 | 0.00 | 83 | 1014.6 |
| 20260510083410 | 15 | 298 | 0.0 | 1.6 | 0.00 | 0.00 | 0.00 | 83 | 1014.8 |
| 20260510082905 | 15 | 298 | 0.0 | 0.0 | 0.00 | 0.00 | 0.00 | 82 | 1014.5 |
| 20260510082403 | 15 | 298 | 0.0 | 0.0 | 0.00 | 0.00 | 0.00 | 83 | 1014.5 |
| 20260510081901 | 16 | 298 | 0.0 | 0.0 | 0.00 | 0.00 | 0.00 | 83 | 1014.4 |
| 20260510081358 | 16 | 298 | 0.0 | 0.0 | 0.00 | 0.00 | 0.00 | 79 | 1014.3 |
| 20260510080855 | 16 | 298 | 0.0 | 0.0 | 0.00 | 0.00 | 0.00 | 80 | 1014.1 |
| 20260510080354 | 16 | 298 | 0.0 | 0.0 | 0.00 | 0.00 | 0.00 | 77 | 1013.9 |
| 20260510075852 | 16 | 298 | 0.0 | 0.0 | 0.00 | 0.00 | 0.00 | 75 | 1013.9 |
| 20260510075349 | 16 | 298 | 0.0 | 0.0 | 0.00 | 0.00 | 0.00 | 76 | 1014.1 |
| 20260510074845 | 16 | 298 | 0.0 | 0.0 | 0.00 | 0.00 | 0.00 | 75 | 1014.1 |
| 20260510074343 | 16 | 298 | 0.0 | 0.0 | 0.00 | 0.00 | 0.00 | 75 | 1014.4 |
| 20260510073839 | 17 | 298 | 1.6 | 1.6 | 0.00 | 0.00 | 0.00 | 75 | 1014.3 |
| 20260510073334 | 17 | 297 | 0.0 | 0.0 | 0.00 | 0.00 | 0.00 | 75 | 1014.3 |
| 20260510072831 | 17 | 298 | 0.0 | 0.0 | 0.00 | 0.00 | 0.00 | 72 | 1014.3 |
| 20260510072328 | 17 | 298 | 0.0 | 0.0 | 0.00 | 0.00 | 0.00 | 73 | 1014.4 |
| 20260510071824 | 16 | 298 | 1.6 | 1.6 | 0.00 | 0.00 | 0.00 | 75 | 1014.4 |
| 20260510071320 | 16 | 298 | 0.0 | 0.0 | 0.00 | 0.00 | 0.00 | 80 | 1014.3 |
| 20260510070820 | 16 | 298 | 0.0 | 0.0 | 0.00 | 0.00 | 0.00 | 76 | 1013.9 |
| 20260510070316 | 16 | 298 | 0.0 | 0.0 | 0.00 | 0.00 | 0.00 | 76 | 1014.1 |
| 20260510065816 | 16 | 298 | 0.0 | 0.0 | 0.00 | 0.00 | 0.00 | 75 | 1013.8 |
| 20260510065313 | 17 | 298 | 0.0 | 0.0 | 0.00 | 0.00 | 0.00 | 75 | 1013.8 |
| 20260510064810 | 17 | 298 | 0.0 | 0.0 | 0.00 | 0.00 | 0.00 | 76 | 1014.1 |
| 20260510064308 | 17 | 298 | 0.0 | 0.0 | 0.00 | 0.00 | 0.00 | 74 | 1014.1 |
| 20260510063803 | 17 | 298 | 0.0 | 0.0 | 0.00 | 0.00 | 0.00 | 72 | 1014.2 |
| 20260510063259 | 16 | 298 | 1.6 | 1.6 | 0.00 | 0.00 | 0.00 | 74 | 1014.4 |
| 20260510062756 | 16 | 278 | 0.0 | 0.0 | 0.00 | 0.00 | 0.00 | 76 | 1014.2 |
| 20260510062252 | 16 | 278 | 0.0 | 0.0 | 0.00 | 0.00 | 0.00 | 76 | 1014.1 |
| 20260510061747 | 16 | 278 | 0.0 | 0.0 | 0.00 | 0.00 | 0.00 | 80 | 1013.9 |
| 20260510061245 | 16 | 278 | 0.0 | 0.0 | 0.00 | 0.00 | 0.00 | 79 | 1013.6 |
| 20260510060740 | 16 | 278 | 0.0 | 0.0 | 0.00 | 0.00 | 0.00 | 74 | 1013.8 |
| 20260510060238 | 16 | 278 | 0.0 | 0.0 | 0.00 | 0.00 | 0.00 | 75 | 1013.4 |
| 20260510055734 | 17 | 278 | 0.0 | 0.0 | 0.00 | 0.00 | 0.00 | 72 | 1013.6 |
| 20260510055233 | 17 | 278 | 0.0 | 0.0 | 0.00 | 0.00 | 0.00 | 71 | 1013.3 |
| 20260510054732 | 17 | 278 | 0.0 | 0.0 | 0.00 | 0.00 | 0.00 | 71 | 1013.5 |
| 20260510054229 | 17 | 278 | 0.0 | 0.0 | 0.00 | 0.00 | 0.00 | 75 | 1013.6 |
| 20260510053728 | 17 | 278 | 0.0 | 0.0 | 0.00 | 0.00 | 0.00 | 70 | 1013.3 |
| 20260510053225 | 17 | 278 | 0.0 | 0.0 | 0.00 | 0.00 | 0.00 | 69 | 1013.3 |
| 20260510052720 | 17 | 278 | 0.0 | 0.0 | 0.00 | 0.00 | 0.00 | 70 | 1013.4 |
| 20260510052217 | 17 | 278 | 0.0 | 0.0 | 0.00 | 0.00 | 0.00 | 67 | 1013.2 |
| 20260510051712 | 17 | 278 | 0.0 | 0.0 | 0.00 | 0.00 | 0.00 | 71 | 1013.3 |
| 20260510051209 | 17 | 278 | 0.0 | 0.0 | 0.00 | 0.00 | 0.00 | 69 | 1013.4 |
| 20260510050706 | 18 | 278 | 0.0 | 0.0 | 0.00 | 0.00 | 0.00 | 69 | 1013.3 |
| 20260510050204 | 18 | 278 | 0.0 | 0.0 | 0.00 | 0.00 | 0.00 | 64 | 1013.2 |
| 20260510045700 | 18 | 278 | 0.0 | 0.0 | 0.00 | 0.00 | 0.00 | 68 | 1013.1 |
| 20260510045157 | 18 | 278 | 0.0 | 0.0 | 0.00 | 0.00 | 0.00 | 62 | 1012.9 |
| 20260510044653 | 18 | 278 | 0.0 | 0.0 | 0.00 | 0.00 | 0.00 | 63 | 1013.1 |
| 20260510044151 | 18 | 278 | 0.0 | 0.0 | 0.00 | 0.00 | 0.00 | 63 | 1013.0 |
| 20260510043646 | 18 | 278 | 0.0 | 0.0 | 0.00 | 0.00 | 0.00 | 61 | 1012.7 |
| 20260510043143 | 19 | 278 | 0.0 | 0.0 | 0.00 | 0.00 | 0.00 | 61 | 1012.9 |
| 20260510042641 | 19 | 278 | 0.0 | 0.0 | 0.00 | 0.00 | 0.00 | 58 | 1012.7 |
| 20260510042136 | 19 | 277 | 1.6 | 1.6 | 0.00 | 0.00 | 0.00 | 57 | 1012.6 |
| 20260510041634 | 20 | 289 | 0.0 | 0.0 | 0.00 | 0.00 | 0.00 | 56 | 1012.6 |
| 20260510041131 | 20 | 290 | 0.0 | 0.0 | 0.00 | 0.00 | 0.00 | 56 | 1012.6 |
| 20260510040628 | 20 | 289 | 1.6 | 1.6 | 0.00 | 0.00 | 0.00 | 55 | 1012.6 |
| 20260510040124 | 20 | 284 | 1.6 | 3.2 | 0.00 | 0.00 | 0.00 | 54 | 1012.8 |
| 20260510035620 | 20 | 310 | 1.6 | 1.6 | 0.00 | 0.00 | 0.00 | 54 | 1012.7 |
| 20260510035121 | 20 | 280 | 3.2 | 6.4 | 0.00 | 0.00 | 0.00 | 52 | 1012.6 |
| 20260510034618 | 20 | 261 | 1.6 | 3.2 | 0.00 | 0.00 | 0.00 | 51 | 1012.4 |
| 20260510034115 | 19 | 280 | 1.6 | 1.6 | 0.00 | 0.00 | 0.00 | 52 | 1012.5 |
| 20260510033611 | 18 | 328 | 3.2 | 3.2 | 0.00 | 0.00 | 0.00 | 56 | 1012.3 |
| 20260510033109 | 17 | 328 | 0.0 | 0.0 | 0.00 | 0.00 | 0.00 | 63 | 1011.9 |
| 20260510032605 | 17 | 328 | 0.0 | 0.0 | 0.00 | 0.00 | 0.00 | 63 | 1011.6 |
| 20260510032101 | 17 | 328 | 0.0 | 0.0 | 0.00 | 0.00 | 0.00 | 61 | 1012.0 |
| 20260510031556 | 17 | 328 | 0.0 | 0.0 | 0.00 | 0.00 | 0.00 | 62 | 1011.7 |
| 20260510031052 | 17 | 328 | 0.0 | 0.0 | 0.00 | 0.00 | 0.00 | 63 | 1011.8 |
| 20260510030547 | 17 | 328 | 0.0 | 0.0 | 0.00 | 0.00 | 0.00 | 68 | 1011.7 |
| 20260510030045 | 16 | 328 | 0.0 | 0.0 | 0.00 | 0.00 | 0.00 | 62 | 1011.6 |
| 20260510025542 | 16 | 328 | 0.0 | 0.0 | 0.00 | 0.00 | 0.00 | 66 | 1011.6 |
| 20260510025040 | 16 | 328 | 0.0 | 0.0 | 0.00 | 0.00 | 0.00 | 68 | 1011.5 |
| 20260510024536 | 16 | 328 | 0.0 | 0.0 | 0.00 | 0.00 | 0.00 | 64 | 1011.2 |
| 20260510024032 | 16 | 328 | 0.0 | 0.0 | 0.00 | 0.00 | 0.00 | 66 | 1011.4 |
| 20260510023528 | 16 | 328 | 0.0 | 0.0 | 0.00 | 0.00 | 0.00 | 69 | 1011.0 |
| 20260510023026 | 16 | 328 | 0.0 | 0.0 | 0.00 | 0.00 | 0.00 | 67 | 1010.9 |
| 20260510022525 | 17 | 328 | 0.0 | 0.0 | 0.00 | 0.00 | 0.00 | 67 | 1010.9 |
| 20260510022020 | 17 | 328 | 0.0 | 0.0 | 0.00 | 0.00 | 0.00 | 64 | 1011.0 |
| 20260510021517 | 17 | 328 | 0.0 | 0.0 | 0.00 | 0.00 | 0.00 | 64 | 1011.0 |
| 20260510021014 | 17 | 328 | 0.0 | 0.0 | 0.00 | 0.00 | 0.00 | 62 | 1011.0 |
| 20260510020508 | 17 | 328 | 0.0 | 0.0 | 0.00 | 0.00 | 0.00 | 64 | 1010.9 |
| 20260510020005 | 17 | 328 | 0.0 | 0.0 | 0.00 | 0.00 | 0.00 | 64 | 1010.6 |
| 20260510015500 | 17 | 328 | 0.0 | 0.0 | 0.00 | 0.00 | 0.00 | 66 | 1010.6 |
| 20260510014955 | 17 | 328 | 0.0 | 0.0 | 0.00 | 0.00 | 0.00 | 67 | 1010.4 |
| 20260510014454 | 17 | 328 | 0.0 | 0.0 | 0.00 | 0.00 | 0.00 | 66 | 1010.4 |
| 20260510013950 | 17 | 328 | 0.0 | 0.0 | 0.00 | 0.00 | 0.00 | 62 | 1010.2 |
| 20260510013444 | 18 | 328 | 0.0 | 0.0 | 0.00 | 0.00 | 0.00 | 64 | 1010.3 |
| 20260510012940 | 18 | 328 | 0.0 | 0.0 | 0.00 | 0.00 | 0.00 | 64 | 1010.2 |
| 20260510012435 | 18 | 328 | 0.0 | 0.0 | 0.00 | 0.00 | 0.00 | 61 | 1010.0 |
| 20260510011931 | 18 | 328 | 0.0 | 0.0 | 0.00 | 0.00 | 0.00 | 61 | 1010.1 |
| 20260510011425 | 19 | 328 | 0.0 | 0.0 | 0.00 | 0.00 | 0.00 | 60 | 1009.9 |
| 20260510010922 | 19 | 328 | 0.0 | 0.0 | 0.00 | 0.00 | 0.00 | 58 | 1010.0 |
| 20260510010420 | 20 | 328 | 0.0 | 0.0 | 0.00 | 0.00 | 0.00 | 56 | 1009.8 |
| 20260510005916 | 20 | 328 | 0.0 | 0.0 | 0.00 | 0.00 | 0.00 | 54 | 1010.1 |
| 20260510005412 | 20 | 328 | 0.0 | 0.0 | 0.00 | 0.00 | 0.00 | 51 | 1009.9 |
| 20260510004909 | 20 | 328 | 0.0 | 0.0 | 0.00 | 0.00 | 0.00 | 51 | 1009.8 |
| 20260510004407 | 21 | 328 | 0.0 | 0.0 | 0.00 | 0.00 | 0.00 | 51 | 1009.9 |
| 20260510003904 | 21 | 328 | 0.0 | 0.0 | 0.00 | 0.00 | 0.00 | 50 | 1010.0 |
| 20260510003401 | 21 | 328 | 0.0 | 0.0 | 0.00 | 0.00 | 0.00 | 51 | 1009.7 |
| 20260510002900 | 22 | 328 | 0.0 | 0.0 | 0.00 | 0.00 | 0.00 | 46 | 1009.8 |
| 20260510002358 | 22 | 328 | 0.0 | 0.0 | 0.00 | 0.00 | 0.00 | 43 | 1009.9 |
| 20260510001854 | 22 | 328 | 0.0 | 0.0 | 0.00 | 0.00 | 0.00 | 43 | 1009.8 |
| 20260510001352 | 23 | 328 | 0.0 | 0.0 | 0.00 | 0.00 | 0.00 | 42 | 1009.7 |
| 20260510000848 | 23 | 328 | 0.0 | 0.0 | 0.00 | 0.00 | 0.00 | 41 | 1009.9 |
| 20260510000348 | 23 | 328 | 0.0 | 0.0 | 0.00 | 0.00 | 0.00 | 44 | 1009.6 |
| 20260509235842 | 23 | 328 | 0.0 | 0.0 | 0.00 | 0.00 | 0.00 | 39 | 1009.7 |
| 20260509235339 | 23 | 328 | 0.0 | 0.0 | 0.00 | 0.00 | 0.00 | 40 | 1009.6 |
| 20260509234834 | 23 | 328 | 0.0 | 0.0 | 0.00 | 0.00 | 0.00 | 43 | 1009.7 |
| 20260509234332 | 23 | 328 | 0.0 | 0.0 | 0.00 | 0.00 | 0.00 | 38 | 1009.6 |
| 20260509233830 | 24 | 328 | 0.0 | 0.0 | 0.00 | 0.00 | 0.00 | 39 | 1009.7 |
| 20260509233327 | 24 | 328 | 0.0 | 0.0 | 0.00 | 0.00 | 0.00 | 36 | 1009.7 |
| 20260509232822 | 24 | 328 | 0.0 | 0.0 | 0.00 | 0.00 | 0.00 | 38 | 1009.6 |
| 20260509232320 | 25 | 328 | 0.0 | 0.0 | 0.00 | 0.00 | 0.00 | 39 | 1009.6 |
| 20260509231816 | 25 | 328 | 0.0 | 1.6 | 0.00 | 0.00 | 0.00 | 41 | 1009.5 |
| 20260509231313 | 25 | 328 | 1.6 | 1.6 | 0.00 | 0.00 | 0.00 | 37 | 1009.5 |
| 20260509230812 | 25 | 328 | 0.0 | 0.0 | 0.00 | 0.00 | 0.00 | 37 | 1009.7 |
| 20260509230308 | 25 | 328 | 0.0 | 1.6 | 0.00 | 0.00 | 0.00 | 42 | 1009.6 |
| 20260509225803 | 25 | 328 | 1.6 | 1.6 | 0.00 | 0.00 | 0.00 | 33 | 1009.5 |
| 20260509225300 | 26 | 333 | 0.0 | 1.6 | 0.00 | 0.00 | 0.00 | 37 | 1009.5 |
| 20260509224756 | 26 | 302 | 3.2 | 3.2 | 0.00 | 0.00 | 0.00 | 32 | 1009.4 |
| 20260509224253 | 26 | 304 | 0.0 | 0.0 | 0.00 | 0.00 | 0.00 | 34 | 1009.5 |
| 20260509223749 | 26 | 305 | 0.0 | 3.2 | 0.00 | 0.00 | 0.00 | 34 | 1009.6 |
| 20260509223246 | 26 | 308 | 0.0 | 3.2 | 0.00 | 0.00 | 0.00 | 33 | 1009.3 |
| 20260509222743 | 26 | 324 | 4.8 | 6.4 | 0.00 | 0.00 | 0.00 | 31 | 1009.6 |
| 20260509222238 | 27 | 310 | 1.6 | 4.8 | 0.00 | 0.00 | 0.00 | 31 | 1009.7 |
| 20260509221734 | 27 | 297 | 1.6 | 1.6 | 0.00 | 0.00 | 0.00 | 30 | 1009.6 |
| 20260509221231 | 27 | 303 | 1.6 | 4.8 | 0.00 | 0.00 | 0.00 | 33 | 1009.5 |
| 20260509220727 | 27 | 321 | 1.6 | 3.2 | 0.00 | 0.00 | 0.00 | 33 | 1009.5 |
| 20260509220223 | 27 | 316 | 1.6 | 4.8 | 0.00 | 0.00 | 0.00 | 31 | 1009.4 |
| 20260509215719 | 28 | 313 | 3.2 | 6.4 | 0.00 | 0.00 | 0.00 | 29 | 1009.5 |
| 20260509215216 | 28 | 283 | 3.2 | 4.8 | 0.00 | 0.00 | 0.00 | 31 | 1009.5 |
| 20260509214713 | 28 | 277 | 0.0 | 1.6 | 0.00 | 0.00 | 0.00 | 28 | 1009.4 |
| 20260509214210 | 28 | 312 | 3.2 | 3.2 | 0.00 | 0.00 | 0.00 | 31 | 1009.6 |
| 20260509213707 | 28 | 260 | 0.0 | 0.0 | 0.00 | 0.00 | 0.00 | 30 | 1009.6 |
| 20260509213202 | 28 | 248 | 1.6 | 1.6 | 0.00 | 0.00 | 0.00 | 31 | 1009.7 |
| 20260509212700 | 28 | 255 | 1.6 | 1.6 | 0.00 | 0.00 | 0.00 | 33 | 1009.7 |
| 20260509212157 | 28 | 277 | 1.6 | 3.2 | 0.00 | 0.00 | 0.00 | 32 | 1009.7 |
| 20260509211652 | 28 | 315 | 3.2 | 4.8 | 0.00 | 0.00 | 0.00 | 28 | 1009.4 |
| 20260509211149 | 28 | 251 | 1.6 | 3.2 | 0.00 | 0.00 | 0.00 | 32 | 1009.7 |
| 20260509210646 | 28 | 247 | 1.6 | 1.6 | 0.00 | 0.00 | 0.00 | 31 | 1009.7 |
| 20260509210143 | 27 | 323 | 1.6 | 6.4 | 0.00 | 0.00 | 0.00 | 28 | 1009.7 |
| 20260509205638 | 27 | 280 | 3.2 | 4.8 | 0.00 | 0.00 | 0.00 | 33 | 1009.8 |
| 20260509205133 | 27 | 291 | 1.6 | 6.4 | 0.00 | 0.00 | 0.00 | 36 | 1009.9 |
| 20260509204629 | 28 | 297 | 1.6 | 4.8 | 0.00 | 0.00 | 0.00 | 34 | 1010.0 |
| 20260509204126 | 27 | 262 | 1.6 | 3.2 | 0.00 | 0.00 | 0.00 | 35 | 1009.9 |
| 20260509203622 | 27 | 263 | 0.0 | 3.2 | 0.00 | 0.00 | 0.00 | 34 | 1009.8 |
| 20260509203120 | 28 | 283 | 1.6 | 3.2 | 0.00 | 0.00 | 0.00 | 31 | 1010.0 |
| 20260509202620 | 27 | 299 | 1.6 | 4.8 | 0.00 | 0.00 | 0.00 | 33 | 1010.2 |
| 20260509202115 | 27 | 311 | 1.6 | 4.8 | 0.00 | 0.00 | 0.00 | 34 | 1010.1 |
| 20260509201615 | 27 | 304 | 1.6 | 6.4 | 0.00 | 0.00 | 0.00 | 34 | 1010.0 |
| 20260509201114 | 27 | 302 | 1.6 | 6.4 | 0.00 | 0.00 | 0.00 | 40 | 1010.1 |
| 20260509200609 | 27 | 283 | 1.6 | 4.8 | 0.00 | 0.00 | 0.00 | 39 | 1010.2 |
| 20260509200105 | 27 | 262 | 3.2 | 3.2 | 0.00 | 0.00 | 0.00 | 32 | 1010.2 |
| 20260509195601 | 27 | 316 | 3.2 | 4.8 | 0.00 | 0.00 | 0.00 | 39 | 1010.4 |
| 20260509195055 | 26 | 297 | 0.0 | 1.6 | 0.00 | 0.00 | 0.00 | 40 | 1010.3 |
| 20260509194555 | 26 | 319 | 1.6 | 3.2 | 0.00 | 0.00 | 0.00 | 39 | 1010.3 |
| 20260509194053 | 27 | 285 | 4.8 | 9.7 | 0.00 | 0.00 | 0.00 | 34 | 1010.4 |
| 20260509193548 | 27 | 332 | 1.6 | 3.2 | 0.00 | 0.00 | 0.00 | 38 | 1010.3 |
| 20260509193045 | 27 | 298 | 1.6 | 1.6 | 0.00 | 0.00 | 0.00 | 36 | 1010.5 |
| 20260509192541 | 26 | 91 | 1.6 | 3.2 | 0.00 | 0.00 | 0.00 | 39 | 1010.4 |
| 20260509192036 | 26 | 287 | 0.0 | 3.2 | 0.00 | 0.00 | 0.00 | 37 | 1010.5 |
| 20260509191531 | 27 | 33 | 1.6 | 3.2 | 0.00 | 0.00 | 0.00 | 37 | 1010.4 |
| 20260509191027 | 27 | 253 | 1.6 | 3.2 | 0.00 | 0.00 | 0.00 | 40 | 1010.2 |